Location: Chatou
(48.8898°N, 2.1586°E)
Time: 07:50:15
(UTC+00:00)

VELOX 1 - Pass Details

Date: 08 December 2023
Orbit: 608 x 622 km, 98.4° (Epoch: 24 February)

Event Time Altitude Azimuth Distance (km) Brightness Sun altitude
Rises 04:28:50 0° 104° (ESE) 2,866 ? -28.9°
Reaches altitude 10° 04:33:02 10° 63° (ENE) 1,970 ? -28.2°
Maximum altitude 04:33:42 10° 54° (NE) 1,950 ? -28.1°
Drops below altitude 10° 04:34:21 10° 45° (NE) 1,972 ? -28.0°
Enters shadow 04:38:15 - 6° (N) 2,784 ? -27.4°
